Wind_Speed
6 5 6 5 5 5 6 6 7 7 8 8 8 8 8 9 8 7 7 5 3 2 1 1 1 1 2 3 4 4 3 3 3 4 5 6 6 5 5 6 5 5 5
7 6 6 6 5 6 6 6 7 7 8 8 9 8 8 8 8 7 6 5 3 1 1 1 1 1 2 3 3 3 3 3 3 3 3 4 5 4 5 5 5 5 5
8 7 6 6 6 6 6 6 6 7 8 8 8 8 8 8 8 7 7 5 4 2 1 1 1 1 2 2 3 3 3 4 3 3 4 4 4 4 4 5 5 5 5
8 8 7 7 6 6 6 6 7 7 8 8 8 8 8 8 8 7 7 6 4 3 2 2 2 2 2 2 2 3 3 3 3 3 3 4 4 5 4 5 5 5 5
8 8 7 7 6 6 6 7 7 7 7 8 8 8 8 8 8 8 7 6 5 4 3 3 3 2 1 1 1 1 2 2 2 2 2 2 3 3 4 5 6 5 5
8 8 7 7 6 6 6 7 7 7 8 8 8 8 8 8 8 8 7 6 5 5 4 3 2 2 1 1 1 1 1 2 2 2 3 3 2 2 3 4 5 6 5
7 7 7 7 7 7 7 7 8 8 8 8 8 8 8 9 8 7 7 6 5 5 4 4 3 2 1 1 1 1 1 2 2 2 2 3 2 2 3 5 5 5 4
8 7 7 8 8 7 7 8 8 8 8 8 9 9 8 9 8 7 7 6 5 5 4 4 3 2 2 2 2 2 2 2 2 2 2 2 3 3 4 5 5 5 5
8 8 8 8 8 8 8 9 9 9 9 9 9 9 9 8 8 7 7 6 6 5 5 4 3 3 3 3 2 2 2 2 2 2 2 2 3 4 5 6 5 5 5
8 8 8 8 8 9 10 10 10 9 9 9 9 9 9 8 8 7 7 6 6 6 6 5 4 3 3 3 3 3 2 2 2 2 3 3 4 5 5 6 6 6 6
8 8 9 8 8 9 10 10 10 10 10 10 9 9 9 8 7 7 7 7 7 6 6 6 5 5 4 4 4 4 3 3 3 3 3 3 4 4 5 6 6 7 7
8 9 10 9 9 10 10 10 11 11 10 9 9 9 8 8 8 8 7 7 7 7 7 7 7 6 6 5 5 5 4 4 4 4 4 4 4 5 5 6 6 7 7
9 9 10 10 10 10 10 11 11 11 11 10 10 10 9 9 9 9 8 8 8 8 8 8 8 8 7 6 6 6 6 5 5 5 5 5 4 5 5 6 6 6 6
11 10 10 11 11 11 11 11 11 11 11 11 11 11 10 10 10 9 9 8 9 9 8 9 9 9 9 8 7 7 7 6 6 5 5 5 5 5 5 5 5 6 6
11 11 11 12 12 11 11 11 11 11 11 11 11 11 11 10 10 10 10 9 9 10 10 9 10 9 9 9 7 7 7 7 6 5 5 5 5 5 5 5 5 6 7
12 11 12 13 13 12 12 12 12 11 11 12 12 12 11 11 10 10 9 10 10 11 11 10 10 10 10 10 9 8 8 8 6 6 6 6 6 6 5 5 6 7 7
14 14 13 13 14 14 14 13 12 12 12 12 13 12 12 11 10 10 10 10 11 11 11 11 10 10 10 10 10 9 9 9 8 6 6 6 6 6 7 7 7 7 8
15 15 14 14 14 15 14 14 14 13 13 13 14 13 12 11 10 10 11 11 11 11 12 11 11 11 11 11 11 10 9 9 9 8 8 7 7 7 8 8 7 8 8
16 16 15 14 15 15 15 14 14 15 14 14 14 13 12 12 12 11 10 10 11 11 11 11 11 11 12 12 11 11 10 10 10 10 9 9 9 9 8 9 8 8 9
16 16 16 15 15 15 15 15 15 16 16 16 15 14 13 12 12 10 10 10 10 11 11 12 12 12 12 12 12 12 11 11 11 11 11 11 11 11 10 9 10 10 10
17 17 17 17 17 16 16 16 16 17 17 16 16 15 14 13 13 12 11 11 11 12 13 13 13 13 13 13 13 13 13 13 13 12 12 12 12 11 12 11 11 11 11
18 18 18 18 18 17 17 17 17 17 17 16 16 15 14 14 13 13 12 12 13 13 13 14 13 13 13 13 13 13 13 14 14 14 14 14 13 13 13 13 12 12 12
19 19 19 18 18 18 18 18 17 17 17 17 17 16 15 15 14 14 13 13 13 14 14 14 14 14 14 13 13 13 13 14 14 14 14 15 15 14 14 14 14 14 14
20 20 20 19 19 18 18 18 17 17 17 18 17 16 16 16 15 14 15 14 14 14 15 15 15 15 14 13 13 13 13 13 13 13 13 14 14 14 14 14 15 15 14
20 21 20 19 19 19 19 18 18 18 18 17 17 16 16 16 16 16 16 15 15 15 16 16 15 15 15 14 14 14 14 14 14 13 13 13 13 13 13 13 14 14 14
20 20 20 19 19 19 19 19 19 19 18 17 17 16 16 15 15 16 15 15 15 15 15 15 15 15 15 15 15 15 14 14 14 14 13 13 13 13 13 12 12 13 14
Wind_Direction
355 359 5 4 4 358 349 345 345 342 339 336 332 329 328 328 332 334 332 331 316 278 263 170 122 132 144 156 160 159 163 145 146 151 163 176 179 179 183 179 177 170 171
359 1 355 351 353 351 346 341 340 339 337 334 332 329 327 328 331 334 329 325 332 323 278 215 154 196 178 155 147 142 139 137 130 138 159 171 166 159 164 166 170 165 166
359 1 352 345 344 343 341 341 338 339 339 335 333 330 326 326 329 330 327 321 328 329 295 237 230 230 204 180 144 133 132 124 132 145 158 155 158 162 164 167 166 163 169
358 356 348 342 338 339 337 335 332 335 336 334 332 329 327 327 329 327 326 325 329 325 309 289 267 223 187 170 151 133 129 132 145 156 158 155 158 167 172 178 176 179 174
348 348 347 342 339 338 335 333 328 327 329 330 328 325 324 324 325 327 325 322 321 322 318 308 296 263 230 184 175 179 154 156 165 163 159 155 165 180 179 181 183 183 178
343 345 341 343 341 336 333 328 326 323 323 325 324 322 321 320 321 323 323 322 318 312 318 315 303 276 272 250 199 213 210 194 206 195 173 173 182 196 181 175 178 181 185
343 342 339 342 344 338 332 326 323 321 320 320 318 318 317 315 315 318 318 319 315 311 309 304 302 291 297 269 249 246 231 212 216 222 211 203 205 191 177 173 174 182 188
342 341 341 339 339 335 328 324 321 320 320 318 315 313 310 310 309 309 308 304 304 303 298 295 282 275 261 246 239 244 241 218 236 231 213 207 197 191 184 187 186 190 198
340 337 335 335 334 332 328 324 321 320 317 315 313 310 307 307 303 300 300 295 289 288 286 285 277 274 256 240 238 251 245 235 241 226 226 224 221 218 209 201 205 212 214
334 333 333 332 330 330 331 327 325 323 317 314 312 309 305 303 298 295 294 290 284 281 276 269 270 271 257 248 252 252 247 240 254 248 238 231 235 235 226 221 225 231 231
326 327 326 326 325 327 329 326 323 323 319 316 313 310 306 300 295 294 289 280 274 270 266 263 259 260 255 253 256 256 249 244 250 262 249 236 232 232 228 229 232 239 240
317 320 321 319 321 323 323 322 319 319 320 317 315 308 303 297 294 292 286 278 268 263 259 257 256 258 253 252 258 258 254 248 249 256 259 247 240 242 236 228 231 234 239
311 313 316 316 316 318 318 317 316 315 316 315 312 307 302 295 292 288 284 274 264 259 257 257 254 254 252 256 255 255 254 254 257 262 267 258 254 250 240 234 235 238 243
307 309 311 314 314 316 315 315 314 311 309 309 311 305 301 294 290 285 280 273 262 259 259 257 253 253 254 256 254 253 253 254 256 262 265 260 258 259 247 238 236 242 248
303 305 308 311 311 312 314 315 315 312 307 308 310 304 299 292 285 282 274 266 259 257 255 250 252 255 254 254 252 254 255 253 255 260 256 257 261 258 253 248 253 250 251
301 306 308 309 309 310 312 312 311 309 306 307 308 303 297 293 288 285 274 267 261 256 255 254 257 256 254 252 250 250 254 255 256 255 257 263 265 264 265 268 263 257 256
300 303 305 306 306 308 311 310 307 304 302 301 301 297 290 287 282 279 274 272 267 262 256 255 259 260 257 255 251 252 253 252 253 256 258 267 270 260 263 269 264 260 259
294 296 300 300 301 303 306 306 305 302 300 301 300 293 287 285 278 274 273 271 266 261 259 255 259 259 257 255 254 252 248 249 249 255 259 265 271 264 262 267 265 261 260
288 288 292 295 295 296 299 301 300 300 300 300 300 296 291 285 280 275 270 267 265 262 256 255 259 259 255 253 252 251 247 249 252 258 262 266 268 268 266 264 265 262 260
288 291 293 292 291 293 295 295 295 296 297 299 300 295 287 283 283 278 268 263 263 260 256 255 257 258 253 250 250 250 250 252 253 255 261 264 267 267 265 266 264 263 261
287 291 294 294 293 294 293 293 293 293 295 296 296 291 284 282 282 279 273 266 261 259 257 256 256 255 252 251 251 250 251 254 255 255 258 263 265 265 261 261 263 263 263
290 292 291 291 290 288 289 292 293 293 294 296 294 288 281 279 277 274 272 269 265 261 257 254 255 254 252 251 251 251 254 256 257 256 259 260 262 263 261 259 259 261 263
289 290 289 286 285 285 285 288 290 290 291 293 293 286 279 274 273 271 273 271 266 262 258 253 254 253 253 253 253 254 256 259 260 256 257 259 260 262 261 259 258 260 264
288 286 286 283 282 282 282 283 286 288 289 289 288 284 279 274 271 270 272 271 268 265 260 256 255 251 251 251 251 254 258 260 259 257 258 259 260 261 261 262 262 260 261
286 286 285 278 277 278 278 280 284 286 288 287 286 282 279 275 270 270 270 270 269 265 260 257 252 249 249 248 251 256 259 260 259 262 260 259 259 261 264 267 266 263 260
283 283 283 277 277 277 277 278 281 285 287 286 285 283 279 277 274 270 266 267 266 264 257 256 252 250 249 249 250 255 258 259 261 261 260 260 261 262 263 265 266 266 264
Height
5897 5896 5896 5895 5894 5894 5893 5892 5891 5890 5889 5888 5887 5886 5885 5884 5883 5881 5879 5877 5876 5876 5876 5876 5876 5876 5876 5876 5876 5877 5877 5877 5878 5878 5878 5878 5879 5879 5880 5880 5880 5881 5882
5897 5896 5896 5895 5894 5894 5893 5892 5891 5890 5889 5888 5887 5886 5885 5884 5883 5881 5879 5877 5876 5876 5876 5876 5876 5876 5877 5877 5877 5877 5878 5878 5878 5878 5878 5878 5879 5879 5880 5880 5880 5881 5882
5896 5896 5895 5895 5894 5893 5893 5892 5891 5890 5889 5888 5887 5886 5885 5884 5883 5881 5879 5878 5877 5877 5877 5877 5877 5877 5877 5877 5877 5877 5878 5878 5878 5878 5878 5878 5879 5879 5879 5880 5880 5881 5882
5896 5896 5895 5895 5894 5893 5892 5892 5891 5890 5889 5888 5887 5886 5885 5884 5882 5881 5880 5879 5878 5878 5877 5877 5877 5877 5877 5877 5877 5878 5878 5878 5878 5878 5879 5879 5879 5879 5880 5880 5880 5881 5882
5896 5896 5895 5894 5893 5893 5892 5891 5890 5890 5889 5888 5887 5886 5884 5883 5882 5881 5880 5879 5879 5878 5878 5878 5878 5878 5877 5877 5877 5877 5878 5878 5878 5879 5879 5879 5879 5880 5880 5880 5880 5881 5882
5896 5895 5895 5894 5893 5892 5892 5891 5890 5889 5888 5887 5886 5885 5884 5883 5882 5881 5880 5879 5879 5878 5878 5878 5878 5878 5878 5877 5877 5878 5878 5878 5878 5878 5879 5879 5879 5879 5879 5880 5880 5881 5881
5896 5895 5894 5893 5892 5892 5891 5890 5889 5888 5887 5886 5885 5884 5883 5882 5881 5881 5880 5879 5879 5878 5878 5878 5878 5878 5878 5878 5878 5877 5877 5878 5878 5878 5878 5879 5879 5879 5879 5879 5880 5881 5881
5895 5894 5894 5893 5892 5891 5890 5889 5888 5887 5886 5885 5884 5883 5882 5881 5880 5880 5879 5879 5878 5878 5878 5878 5878 5878 5878 5878 5877 5877 5877 5877 5877 5878 5878 5878 5878 5878 5879 5879 5880 5880 5881
5894 5894 5893 5892 5891 5890 5889 5888 5887 5886 5885 5884 5883 5882 5881 5880 5879 5879 5878 5878 5878 5877 5877 5877 5877 5877 5878 5878 5877 5877 5877 5877 5877 5877 5877 5877 5877 5877 5878 5879 5879 5880 5880
5893 5893 5892 5891 5890 5889 5888 5887 5886 5885 5884 5883 5882 5880 5879 5879 5878 5877 5877 5877 5877 5876 5876 5876 5876 5877 5877 5877 5877 5876 5877 5877 5876 5877 5876 5876 5876 5876 5877 5878 5878 5879 5879
5892 5892 5891 5890 5889 5888 5886 5885 5884 5883 5882 5881 5880 5879 5878 5877 5877 5876 5876 5876 5875 5875 5875 5875 5875 5876 5876 5876 5876 5876 5876 5876 5876 5876 5876 5875 5875 5875 5876 5877 5877 5878 5878
5891 5890 5889 5888 5887 5886 5885 5883 5882 5881 5880 5879 5878 5877 5876 5876 5875 5875 5874 5874 5874 5874 5874 5874 5874 5874 5875 5875 5875 5875 5875 5875 5875 5875 5875 5874 5874 5874 5875 5875 5876 5876 5876
5889 5888 5888 5887 5886 5884 5883 5882 5881 5880 5878 5877 5877 5875 5875 5874 5874 5873 5873 5872 5872 5872 5872 5872 5872 5873 5873 5873 5874 5874 5874 5874 5874 5874 5874 5874 5873 5873 5874 5874 5874 5874 5875
5887 5887 5886 5885 5883 5882 5881 5879 5879 5878 5877 5876 5875 5873 5872 5872 5871 5871 5871 5870 5870 5870 5870 5870 5871 5871 5871 5872 5872 5872 5873 5873 5873 5873 5873 5872 5872 5872 5872 5872 5872 5873 5873
5885 5885 5884 5882 5881 5880 5878 5877 5876 5875 5874 5873 5872 5871 5870 5869 5869 5868 5868 5868 5867 5868 5868 5869 5869 5869 5870 5870 5871 5871 5871 5871 5871 5871 5871 5871 5871 5871 5871 5871 5871 5871 5871
5882 5882 5881 5880 5879 5877 5876 5875 5874 5873 5872 5870 5869 5868 5867 5867 5866 5865 5865 5865 5865 5866 5866 5866 5867 5867 5868 5868 5869 5869 5869 5869 5870 5870 5870 5870 5870 5870 5870 5870 5869 5869 5869
5879 5879 5878 5877 5875 5874 5873 5872 5871 5870 5869 5868 5867 5866 5865 5864 5864 5863 5863 5863 5863 5863 5863 5864 5864 5865 5865 5866 5867 5867 5867 5867 5868 5868 5868 5868 5868 5868 5868 5868 5867 5867 5867
5876 5876 5875 5873 5872 5871 5870 5869 5868 5867 5866 5865 5864 5863 5862 5861 5861 5861 5860 5860 5860 5860 5861 5861 5862 5862 5863 5864 5864 5865 5865 5865 5866 5866 5866 5866 5866 5865 5866 5866 5865 5865 5865
5872 5872 5871 5870 5869 5868 5866 5866 5865 5864 5863 5862 5860 5859 5859 5858 5858 5857 5857 5857 5857 5858 5858 5859 5859 5859 5860 5861 5862 5862 5862 5863 5863 5863 5864 5864 5863 5863 5863 5863 5863 5863 5863
5868 5868 5867 5866 5866 5864 5863 5862 5861 5861 5859 5858 5857 5856 5855 5855 5854 5854 5854 5854 5854 5855 5855 5856 5856 5856 5857 5858 5859 5859 5860 5860 5861 5861 5861 5861 5861 5861 5861 5861 5861 5861 5861
5865 5864 5863 5862 5861 5861 5860 5859 5858 5857 5855 5854 5853 5852 5852 5851 5851 5851 5851 5851 5851 5851 5852 5852 5852 5853 5853 5855 5855 5856 5857 5857 5858 5858 5858 5858 5858 5858 5858 5858 5858 5858 5858
5861 5860 5859 5858 5857 5856 5856 5855 5854 5852 5851 5850 5849 5848 5848 5847 5847 5847 5847 5847 5847 5847 5848 5848 5849 5849 5850 5851 5852 5852 5853 5854 5854 5855 5855 5855 5855 5855 5855 5855 5855 5855 5854
5856 5855 5855 5854 5853 5852 5851 5850 5849 5848 5847 5846 5845 5844 5844 5843 5843 5843 5843 5843 5843 5843 5843 5844 5844 5845 5846 5847 5848 5849 5849 5850 5851 5851 5851 5852 5851 5851 5851 5851 5851 5851 5851
5851 5850 5849 5849 5848 5847 5847 5846 5845 5844 5843 5842 5841 5840 5839 5839 5839 5838 5838 5839 5839 5839 5839 5839 5840 5840 5841 5842 5844 5845 5846 5846 5847 5848 5848 5848 5848 5848 5848 5848 5847 5848 5848
5845 5845 5843 5843 5843 5842 5842 5841 5840 5840 5838 5837 5836 5835 5835 5834 5834 5834 5834 5834 5834 5834 5834 5835 5836 5837 5838 5839 5840 5841 5842 5842 5843 5843 5844 5844 5844 5844 5844 5844 5844 5844 5844
5839 5839 5838 5838 5838 5838 5837 5836 5835 5834 5833 5833 5832 5831 5830 5830 5830 5830 5830 5829 5829 5829 5830 5831 5832 5832 5833 5835 5836 5837 5838 5838 5839 5839 5840 5841 5841 5841 5841 5840 5840 5840 5840